"Pseudo-MPEC" for HirJC21

Created 2024 May 21 20:22:07 UT using Find_Orb

Click here for an explanation of pseudo-MPECs

 
 Astrometry: 
     HirJC21*0B2024 05 03a``2[j/?!;moB.Ot]QGhFwmI1W;VZhQ%ha'-vTf;mSF:Bl7iFW2eM49
     HirJC21 0B2024 05 033NyUZ$DA,+7(:#!0rnb`1S)'0O^BnLKn'+L%Xe=;%upim-fZGw3PM49
     HirJC21 0B2024 05 03XCZ@NBkBJPIOV':MvsHF=p$\xL32Vk/6aO?*t;.Jd7ZF,.vY0CvZM49
     HirJC21 0B2024 05 03a!:')7t5(6?Gt9b('sxMAstrometry%`I_KF5+bjK+(redacted;M49
     HirJC21 0B2024 05 03cZqEpjlD*.iyT%;fclickffSKNDMherePoY22m*W=t#aXfg4UfiLM49
     HirJC21 0B2024 05 03E*8cJXqu-;I]d\pw)T.F(2-aRNu-ndforYnHK1L*(HkwKNbax9j,M49
     HirJC21 KB2024 05 04!65gwv?KK'sj`glfy?J'g;YlCuSv4C(i3=W0mv5s#.cvU^ON.0;#M45
     HirJC21 KB2024 05 04i-d:vRexplanation]%BpvyZjOocS$KT5/)dq9YN)ANG[Ks*vCO$M45
     HirJC21 KB2024 05 04J$sgWQm\+]k4!(ZjeUsf7xfd(-.keYp_'jndv+/d,F@J1vCxgAQ#M45

Station data:
(M45) Starhopper Observatory, Sfantu Gheorghe  (N45.865582 E25.768900)
   Romania.  Observer F. Ursache. 0.41-m f/7.5 reflector + CMO.
(M49) IAS Remote Observatory, Hakos  (S23.236549 E16.361720)  Namibia.
   Observers D. Husar, M. Junius. Measurer D. Husar. 0.25-m f/4.6 reflector +
   CCD.

Orbital elements:  HirJC21
   Perihelion 2024 Apr 4.58912 +/- 44.2 TT = 14:08:19 (JD 2460405.08912)
Epoch 2024 May  4.0 TT = JDT 2460434.5   Earth MOID: 0.2609      AutoNEOCP
M  11.31861500 +/- 38               (J2000 ecliptic)
n   0.38484443 +/- 0.255            Peri.  202.77161 +/- 56
a   1.87188533 +/- 0.826            Node   336.54961 +/- 11
e   0.3348059 +/- 0.189             Incl.   11.63703 +/- 4.5
P   2.56/935.43d           H 18.75  G  0.15   U 11.8  SR
q 1.24516694 +/- 0.188    Q 2.49860371 +/- 2.27
From 9 observations 2024 May 3-4 (24.1 hr); mean residual 0".43
Residuals in arcseconds: 
240503 M49  .05+  .17+    240503 M49  .38+  .31-    240504 M45  .60-  .21+    
240503 M49  .71-  .41+    240503 M49  .34+  .20-    240504 M45  .08-  .44-    
240503 M49  .50+  .58-    240503 M49  .56-  .51+    240504 M45  .66+  .23+    

Ephemerides (geocentric):
Date (UTC) HH   RA             Dec           delta  r     elong  mag " sig PA
---- --------  ------------   ------------  ------ ------ -----  --- --------
2024 05 21 20  10 39 03.760   -15 25 45.68  .60962 1.3127 105.4 20.1 3690  64
2024 05 21 21  10 39 10.734   -15 26 31.04  .60986 1.3128 105.4 20.1 3706  64
2024 05 21 22  10 39 17.710   -15 27 16.37  .61009 1.3129 105.3 20.1 3722  64
2024 05 21 23  10 39 24.687   -15 28 01.68  .61032 1.3130 105.3 20.1 3738  64
2024 05 22 00  10 39 31.665   -15 28 46.97  .61056 1.3131 105.3 20.1 3753  64
2024 05 22 01  10 39 38.645   -15 29 32.24  .61079 1.3133 105.3 20.1 3769  64
2024 05 22 02  10 39 45.626   -15 30 17.49  .61103 1.3134 105.3 20.1 3785  64
2024 05 22 03  10 39 52.608   -15 31 02.71  .61126 1.3135 105.3 20.1 3801  65
2024 05 22 04  10 39 59.591   -15 31 47.91  .61150 1.3136 105.3 20.1 3817  65
2024 05 22 05  10 40 06.576   -15 32 33.09  .61173 1.3137 105.3 20.1 3833  65
2024 05 22 06  10 40 13.562   -15 33 18.25  .61196 1.3138 105.3 20.1 3849  65
2024 05 22 07  10 40 20.549   -15 34 03.39  .61220 1.3139 105.3 20.1 3864  65
2024 05 22 08  10 40 27.538   -15 34 48.50  .61243 1.3141 105.3 20.1 3880  65
2024 05 22 09  10 40 34.528   -15 35 33.59  .61267 1.3142 105.3 20.1 3896  65
2024 05 22 10  10 40 41.519   -15 36 18.66  .61290 1.3143 105.3 20.1 3912  65
2024 05 22 11  10 40 48.511   -15 37 03.71  .61314 1.3144 105.3 20.1 3929  65
2024 05 22 12  10 40 55.505   -15 37 48.73  .61338 1.3145 105.3 20.1 3945  65
2024 05 22 13  10 41 02.500   -15 38 33.74  .61361 1.3146 105.3 20.1 3961  65
2024 05 22 14  10 41 09.496   -15 39 18.72  .61385 1.3147 105.2 20.1 3977  65
2024 05 22 15  10 41 16.493   -15 40 03.68  .61408 1.3149 105.2 20.1 3993  65
2024 05 22 16  10 41 23.492   -15 40 48.61  .61432 1.3150 105.2 20.1 4009  65
2024 05 22 17  10 41 30.492   -15 41 33.53  .61455 1.3151 105.2 20.1 4025  65
2024 05 22 18  10 41 37.493   -15 42 18.42  .61479 1.3152 105.2 20.1 4042  65
2024 05 22 19  10 41 44.495   -15 43 03.29  .61503 1.3153 105.2 20.1 4058  65
2024 05 22 20  10 41 51.499   -15 43 48.14  .61526 1.3154 105.2 20.1 4074  65
2024 05 22 21  10 41 58.504   -15 44 32.96  .61550 1.3155 105.2 20.1 4090  65
2024 05 22 22  10 42 05.510   -15 45 17.77  .61574 1.3157 105.2 20.1 4107  65
2024 05 22 23  10 42 12.518   -15 46 02.55  .61597 1.3158 105.2 20.1 4123  65
2024 05 23 00  10 42 19.526   -15 46 47.31  .61621 1.3159 105.2 20.1 4139  65
2024 05 23 01  10 42 26.536   -15 47 32.05  .61645 1.3160 105.2 20.1 4156  65
2024 05 23 02  10 42 33.547   -15 48 16.76  .61668 1.3161 105.2 20.1 4172  65
2024 05 23 03  10 42 40.560   -15 49 01.45  .61692 1.3162 105.2 20.1 4189  65
2024 05 23 04  10 42 47.573   -15 49 46.13  .61716 1.3163 105.2 20.1 4205  65
2024 05 23 05  10 42 54.588   -15 50 30.78  .61739 1.3165 105.2 20.1 4221  65
2024 05 23 06  10 43 01.604   -15 51 15.40  .61763 1.3166 105.1 20.1 4238  65
2024 05 23 07  10 43 08.621   -15 52 00.01  .61787 1.3167 105.1 20.1 4254  65
2024 05 23 08  10 43 15.640   -15 52 44.59  .61811 1.3168 105.1 20.1 4271  65
2024 05 23 09  10 43 22.660   -15 53 29.15  .61835 1.3169 105.1 20.1 4288  65
2024 05 23 10  10 43 29.681   -15 54 13.69  .61858 1.3170 105.1 20.1 4304  65
2024 05 23 11  10 43 36.703   -15 54 58.21  .61882 1.3172 105.1 20.1 4321  65
2024 05 23 12  10 43 43.726   -15 55 42.70  .61906 1.3173 105.1 20.1 4337  65
2024 05 23 13  10 43 50.751   -15 56 27.17  .61930 1.3174 105.1 20.1 4354  65
2024 05 23 14  10 43 57.777   -15 57 11.62  .61954 1.3175 105.1 20.1 4371  65
2024 05 23 15  10 44 04.804   -15 57 56.05  .61977 1.3176 105.1 20.1 4388  65
2024 05 23 16  10 44 11.832   -15 58 40.46  .62001 1.3177 105.1 20.1 4404  65
2024 05 23 17  10 44 18.861   -15 59 24.84  .62025 1.3179 105.1 20.1 4421  65
2024 05 23 18  10 44 25.892   -16 00 09.21  .62049 1.3180 105.1 20.1 4438  65
2024 05 23 19  10 44 32.924   -16 00 53.55  .62073 1.3181 105.1 20.1 4455  65